Hourly Weather Ziyodin

Today, 26 January, Tuesday

Time Temperature Precipitation Wind Pressure Humidity
00:00 -1°C° 0 mm 2 mps 732 mmHg 69%
01:00 -1°C° 0 mm 2 mps 732 mmHg 69%
02:00 -2°C° 0 mm 2 mps 732 mmHg 69%
03:00 -2°C° 0 mm 2 mps 732 mmHg 70%
04:00 -2°C° 0 mm 2 mps 732 mmHg 70%
05:00 -2°C° 0 mm 2 mps 732 mmHg 70%
06:00 -2°C° 0 mm 2 mps 732 mmHg 70%
07:00 -2°C° 0 mm 2 mps 732 mmHg 70%
08:00 0°C° 0 mm 3 mps 732 mmHg 65%
09:00 +1°C° 0 mm 3 mps 732 mmHg 60%
10:00 +3°C° 0 mm 3 mps 732 mmHg 54%
11:00 +5°C° 0 mm 2 mps 732 mmHg 52%
12:00 +6°C° 0 mm 2 mps 732 mmHg 49%
13:00 +7°C° 0 mm 2 mps 731 mmHg 47%
14:00 +6°C° 0 mm 2 mps 731 mmHg 50%
15:00 +7°C° 0 mm 1 mps 731 mmHg 53%
16:00 +7°C° 0 mm 1 mps 731 mmHg 56%
17:00 +6°C° 0 mm 1 mps 732 mmHg 59%
18:00 +3°C° 0 mm 2 mps 732 mmHg 63%
19:00 +2°C° 0 mm 2 mps 732 mmHg 67%
20:00 +3°C° 0 mm 1 mps 731 mmHg 67%
21:00 +3°C° 0 mm 1 mps 731 mmHg 67%
22:00 +2°C° 0 mm 1 mps 731 mmHg 67%
23:00 +2°C° 0 mm 1 mps 731 mmHg 67%

Tomorrow, 27 January, Wednesday

Time Temperature Precipitation Wind Pressure Humidity
00:00 +2°C° 0 mm 1 mps 731 mmHg 66%
01:00 +2°C° 0 mm 1 mps 731 mmHg 66%
02:00 +2°C° 0 mm 1 mps 731 mmHg 65%
03:00 +2°C° 0 mm 1 mps 731 mmHg 65%
04:00 +1°C° 0 mm 2 mps 731 mmHg 64%
05:00 -1°C° 0 mm 2 mps 732 mmHg 63%
06:00 -1°C° 0 mm 2 mps 732 mmHg 62%
07:00 -1°C° 0 mm 2 mps 732 mmHg 61%
08:00 +2°C° 0 mm 2 mps 732 mmHg 53%
09:00 +5°C° 0 mm 2 mps 732 mmHg 46%
10:00 +7°C° 0 mm 2 mps 732 mmHg 38%
11:00 +8°C° 0 mm 2 mps 732 mmHg 35%
12:00 +9°C° 0 mm 2 mps 732 mmHg 32%
13:00 +10°C° 0 mm 2 mps 732 mmHg 29%
14:00 +9°C° 0 mm 2 mps 732 mmHg 32%
15:00 +9°C° 0 mm 2 mps 731 mmHg 35%
16:00 +9°C° 0 mm 2 mps 731 mmHg 39%
17:00 +7°C° 0 mm 2 mps 731 mmHg 42%
18:00 +6°C° 0 mm 2 mps 732 mmHg 46%
19:00 +4°C° 0 mm 2 mps 732 mmHg 50%
20:00 +3°C° 0 mm 3 mps 732 mmHg 49%
21:00 +2°C° 0 mm 3 mps 731 mmHg 49%
22:00 +2°C° 0 mm 3 mps 731 mmHg 49%
23:00 +2°C° 0 mm 3 mps 731 mmHg 50%

Day after tomorrow, 28 January, Thursday

Time Temperature Precipitation Wind Pressure Humidity
00:00 +1°C° 0 mm 3 mps 731 mmHg 50%
01:00 +1°C° 0 mm 3 mps 731 mmHg 51%
02:00 +1°C° 0 mm 3 mps 731 mmHg 51%
03:00 0°C° 0 mm 3 mps 731 mmHg 51%
04:00 0°C° 0 mm 3 mps 730 mmHg 51%
05:00 0°C° 0 mm 3 mps 730 mmHg 51%
06:00 +1°C° 0 mm 2 mps 731 mmHg 51%
07:00 +1°C° 0 mm 2 mps 731 mmHg 51%
08:00 +3°C° 0 mm 2 mps 731 mmHg 45%
09:00 +4°C° 0 mm 3 mps 731 mmHg 38%
10:00 +7°C° 0 mm 3 mps 731 mmHg 32%
11:00 +9°C° 0 mm 2 mps 731 mmHg 29%
12:00 +10°C° 0 mm 2 mps 730 mmHg 27%
13:00 +12°C° 0 mm 2 mps 730 mmHg 25%
14:00 +12°C° 0 mm 2 mps 730 mmHg 27%
15:00 +10°C° 0 mm 2 mps 730 mmHg 29%
16:00 +10°C° 0 mm 2 mps 729 mmHg 31%
17:00 +9°C° 0 mm 2 mps 730 mmHg 35%
18:00 +7°C° 0 mm 3 mps 730 mmHg 39%
19:00 +5°C° 0 mm 3 mps 730 mmHg 43%
20:00 +4°C° 0 mm 3 mps 730 mmHg 42%
21:00 +4°C° 0 mm 3 mps 729 mmHg 42%
22:00 +3°C° 0 mm 4 mps 729 mmHg 41%
23:00 +3°C° 0 mm 4 mps 729 mmHg 40%

29 January, Friday

Time Temperature Precipitation Wind Pressure Humidity
00:00 +1°C° 0 mm 4 mps 729 mmHg 39%
01:00 +1°C° 0 mm 4 mps 729 mmHg 39%
02:00 +1°C° 0 mm 4 mps 728 mmHg 38%
03:00 +1°C° 0 mm 4 mps 728 mmHg 37%
04:00 +2°C° 0 mm 3 mps 728 mmHg 37%
05:00 +2°C° 0 mm 3 mps 728 mmHg 36%
06:00 +2°C° 0 mm 3 mps 728 mmHg 34%
07:00 +2°C° 0 mm 3 mps 728 mmHg 33%
08:00 +4°C° 0 mm 4 mps 728 mmHg 29%
09:00 +7°C° 0 mm 4 mps 728 mmHg 25%
10:00 +10°C° 0 mm 4 mps 728 mmHg 20%
11:00 +12°C° 0 mm 4 mps 728 mmHg 19%
12:00 +13°C° 0 mm 4 mps 728 mmHg 17%
13:00 +15°C° 0 mm 4 mps 727 mmHg 15%
14:00 +14°C° 0 mm 4 mps 727 mmHg 17%
15:00 +14°C° 0 mm 3 mps 727 mmHg 20%
16:00 +13°C° 0 mm 3 mps 727 mmHg 22%
17:00 +12°C° 0 mm 3 mps 727 mmHg 23%
18:00 +10°C° 0 mm 3 mps 727 mmHg 24%
19:00 +8°C° 0 mm 4 mps 727 mmHg 25%
20:00 +8°C° 0 mm 4 mps 727 mmHg 25%
21:00 +7°C° 0 mm 4 mps 726 mmHg 25%
22:00 +7°C° 0 mm 4 mps 726 mmHg 24%
23:00 +6°C° 0 mm 4 mps 726 mmHg 24%

30 January, Saturday

Time Temperature Precipitation Wind Pressure Humidity
00:00 +6°C° 0 mm 4 mps 726 mmHg 24%
01:00 +6°C° 0 mm 4 mps 725 mmHg 24%
02:00 +6°C° 0 mm 4 mps 725 mmHg 24%
03:00 +6°C° 0 mm 4 mps 725 mmHg 23%
04:00 +6°C° 0 mm 4 mps 725 mmHg 23%
05:00 +6°C° 0 mm 4 mps 725 mmHg 22%
06:00 +6°C° 0 mm 4 mps 724 mmHg 22%
07:00 +6°C° 0 mm 4 mps 724 mmHg 21%
08:00 +8°C° 0 mm 4 mps 724 mmHg 20%
09:00 +11°C° 0 mm 4 mps 724 mmHg 18%
10:00 +13°C° 0 mm 4 mps 724 mmHg 17%
11:00 +14°C° 0 mm 4 mps 723 mmHg 16%
12:00 +17°C° 0 mm 4 mps 723 mmHg 15%
13:00 +18°C° 0 mm 4 mps 722 mmHg 15%
14:00 +17°C° 0 mm 4 mps 722 mmHg 17%
15:00 +17°C° 0 mm 4 mps 721 mmHg 20%
16:00 +15°C° 0 mm 4 mps 721 mmHg 22%
17:00 +14°C° 0 mm 4 mps 721 mmHg 23%
18:00 +13°C° 0 mm 4 mps 720 mmHg 23%
19:00 +12°C° 0 mm 4 mps 720 mmHg 24%
20:00 +12°C° 0 mm 3 mps 720 mmHg 24%
21:00 +12°C° 0 mm 3 mps 720 mmHg 24%
22:00 +12°C° 0 mm 3 mps 720 mmHg 25%
23:00 +12°C° 0 mm 3 mps 720 mmHg 27%

31 January, Sunday

Time Temperature Precipitation Wind Pressure Humidity
00:00 +12°C° 0 mm 3 mps 720 mmHg 29%
01:00 +11°C° 0 mm 3 mps 719 mmHg 31%
02:00 +12°C° 0 mm 2 mps 719 mmHg 31%
03:00 +12°C° 0 mm 2 mps 719 mmHg 32%
04:00 +12°C° 0 mm 2 mps 719 mmHg 32%
05:00 +10°C° 0 mm 2 mps 719 mmHg 34%
06:00 +10°C° 0 mm 2 mps 720 mmHg 36%
07:00 +10°C° 0 mm 2 mps 720 mmHg 37%
08:00 +11°C° 0 mm 4 mps 720 mmHg 36%
09:00 +10°C° 0 mm 5 mps 721 mmHg 35%
10:00 +11°C° 0 mm 7 mps 721 mmHg 34%
11:00 +11°C° 0 mm 6 mps 721 mmHg 35%
12:00 +12°C° 0 mm 5 mps 721 mmHg 37%
13:00 +13°C° 0 mm 4 mps 721 mmHg 38%
14:00 +13°C° 0 mm 4 mps 721 mmHg 40%
15:00 +12°C° 0 mm 4 mps 722 mmHg 42%
16:00 +12°C° 0 mm 4 mps 722 mmHg 44%
17:00 +11°C° 0 mm 4 mps 723 mmHg 48%
18:00 +10°C° 0 mm 3 mps 723 mmHg 52%
19:00 +9°C° 0 mm 3 mps 724 mmHg 56%
20:00 +8°C° 0 mm 2 mps 724 mmHg 56%
21:00 +8°C° 0 mm 2 mps 725 mmHg 56%
22:00 +7°C° 0 mm 2 mps 725 mmHg 56%
23:00 +8°C° 0 mm 1 mps 725 mmHg 56%
Show more